Regional Weather Roundup
Issued by NWS Sioux Falls, SD

Home | Current Version | Previous Version | Text Only | Print | Product List | Glossary On
Versions: 1 2 3 4 5 6 7 8 9 10 11 12 13 14 15 16 17 18 19 20 21 22 23 24 25 26 27 28 29 30 31 32 33 34 35 36 37 38 39 40 41 42 43 44 45 46 47 48 49 50
043
ASUS43 KFSD 262002
RWRFSD

WEATHER ROUNDUP FOR SE SOUTH DAKOTA/SW MINNESOTA/NW IOWA
NATIONAL WEATHER SERVICE SIOUX FALLS SD
300 PM CDT FRI AUG 26 2016

NOTE: "FAIR" INDICATES FEW OR NO CLOUDS BELOW 12,000 FEET WITH NO
SIGNIFICANT WEATHER AND OR OBSTRUCTIONS TO VISIBILITY.


SDZ038>040-050-052>070-262100-
SOUTHEAST SOUTH DAKOTA

CITY           SKY/WX    TMP DP  RH WIND       PRES   REMARKS
BROOKINGS      CLOUDY    70  52  52 S5        30.14F
CHAMBERLAIN    CLOUDY    71  55  58 NE6       30.12F
HURON          CLOUDY    69  53  56 NW13      30.13F
MADISON        FAIR      70  54  56 SW3       30.15S
MITCHELL       CLOUDY    75  51  43 CALM      30.12F
SIOUX FALLS    CLOUDY    73  54  51 S8        30.13F
WINNER         MOCLDY    68  55  63 NE9       30.13S
YANKTON        CLOUDY    73  55  53 E8        30.10F
$$

MNZ071-072-080-081-089-090-097-098-262100-
SOUTHWEST MINNESOTA

CITY           SKY/WX    TMP DP  RH WIND       PRES   REMARKS
FAIRMONT       CLOUDY    69  57  65 VRB7      30.16F
JACKSON          N/A     70  55  60 SE7       30.16F
LUVERNE        MOSUNNY   70  55  60 SE7       30.15F
MARSHALL       MOSUNNY   71  54  54 S6        30.15S
MONTEVIDEO     CLOUDY    73  57  56 S5        30.16F
REDWOOD FALLS  CLOUDY    70  54  56 SE6       30.15S
TRACY          PTSUNNY   72  57  59 S6        30.16S
WINDOM         MOSUNNY   70  55  60 SE6       30.16F
WORTHINGTON    CLOUDY    68  57  68 E5        30.16F
$$

IAZ001>003-012>014-020>022-031-032-NEZ013-014-SDZ071-262100-
NORTHWEST IOWA

CITY           SKY/WX    TMP DP  RH WIND       PRES   REMARKS
CHEROKEE       CLOUDY    71  61  69 SE7       30.14S
DENISON        CLOUDY    68  63  83 S9        30.11F HAZE
ESTHERVILLE    CLOUDY    67  59  75 SE6       30.15F
LE MARS        CLOUDY    72  59  64 E7        30.13F
ORANGE CITY    CLOUDY    70  61  73 SE6       30.14F
SHELDON        CLOUDY    70  61  73 SE6       30.14S
SIOUX CITY     CLOUDY    74  59  59 E10       30.11F
SPENCER        CLOUDY    70  57  63 SE9       30.15F
STORM LAKE       N/A     68  61  77 SE10      30.15S
$$

ABBREVIATIONS USED IN REMARKS
   TC - TEMPERATURE IN CELSIUS
  WCI - WIND CHILL INDEX
   HX - HEAT INDEX
  VSB - VISIBILITY





USA.gov is the U.S. government's official web portal to all federal, state and local government web resources and services.